Location: Newark
(21.1200°N, 73.4000°E)
Time: 14:47:54
(UTC+00:00)

Courier 1B Rocket - Pass Details

Date: 25 January 2020
Orbit: 920 x 1202 km, 28.2° (Epoch: 25 February)

Event Time Altitude Azimuth Distance (km) Brightness Sun altitude
Rises 11:06:39 0° 290° (WNW) 3,702 8.6 21.3°
Reaches altitude 10° 11:09:23 10° 292° (WNW) 2,714 8.0 20.7°
Maximum altitude 11:15:55 78° 18° (NNE) 958 5.2 19.4°
Drops below altitude 10° 11:22:09 10° 105° (ESE) 2,605 6.9 18.2°
Sets 11:24:44 0° 106° (ESE) 3,542 7.5 17.6°
